Flag Weather past 2 weeks in Guelph, Ontario, Canada

Now
14 °F

Clear.


Feels Like: 3 °F
Forecast: 14 / 37 °F
Wind: 8 mph from West

Location: Waterloo Well

Current Time: Nov 21, 2014 at 10:11:12 PM

Latest Report: Nov 21, 2014 at 9:00 PM


Visibility: 9 mi

Pressure: 30.42 "Hg

Humidity: 73%

Dew point: 7 °F

Location of GuelphLocation

Historic Weather in Guelph — Graph

°F

Guelph temperature yesterday

Maximum temperature yesterday: 23 °F (at 12:00 AM)
Minimum temperature yesterday: 16 °F (at 9:00 PM)
Average temperature yesterday: 20 °F

Past Weeks' High & Low Weather Summary

 TemperatureHumidityPressure
High61 °F (Nov 11, 1:00 PM)100% (Nov 6, 9:00 PM)30.47 "Hg (Nov 6, 9:00 PM)
Low9 °F (Nov 21, 7:00 AM)48% (Nov 11, 1:00 PM)29.55 "Hg (Nov 17, 1:48 PM)
Average29 °F81%29.96 "Hg
* Reported Nov 6 9:00 PM — Nov 21 9:00 PM, Guelph, Weather by CustomWeather, © 2014

Note: Actual official high and low records may vary slightly from our data, if they occured in-between our weather recording intervals... More about our weather records

Advertising

Guelph weather history for previous 24 hours

 ConditionsComfort  
Time TempWeatherWind HumidityBarometerVisibility
9:00 PM
Nov 21
14 °FClear.8 mph73%30.42 "Hg9 mi
8:00 PM14 °FClear.7 mph73%30.44 "Hg9 mi
7:00 PM16 °FClear.9 mph67%30.45 "Hg9 mi
6:00 PM18 °FClear.12 mph58%30.47 "Hg9 mi
5:00 PM19 °FClear.9 mph63%30.45 "Hg9 mi
4:01 PM21 °FSunny.17 mph58%30.43 "Hg9 mi
3:03 PM23 °FLight snow. Sunny.17 mph58%30.42 "Hg9 mi
2:01 PM23 °FLight snow. Passing clouds.15 mph58%30.42 "Hg9 mi
1:00 PM25 °FOvercast.15 mph54%30.40 "Hg9 mi
12:46 PM23 °FMostly cloudy.13 mph68%30.40 "Hg9 mi
12:00 PM23 °FPartly sunny.15 mph74%30.41 "Hg9 mi
11:00 AM23 °FOvercast.9 mph74%30.41 "Hg9 mi
10:00 AM21 °FOvercast.10 mph68%30.38 "Hg9 mi
9:00 AM14 °FScattered clouds.3 mph92%30.37 "Hg9 mi
8:00 AM9 °FSunny.5 mph92%30.33 "Hg9 mi
7:00 AM9 °FClear.5 mph92%30.29 "Hg9 mi
6:00 AM12 °FClear.7 mph92%30.24 "Hg9 mi
5:00 AM16 °FClear.7 mph86%30.20 "Hg9 mi
4:00 AM19 °FPassing clouds.6 mph86%30.15 "Hg9 mi
3:00 AM19 °FLight snow. Mostly cloudy.12 mph93%30.11 "Hg5 mi
2:00 AM19 °FLight snow. Overcast.15 mph86%30.08 "Hg2 mi
1:50 AM19 °FLight snow. Overcast.15 mph86%30.07 "Hg2 mi
1:00 AM18 °FLight snow. Partly cloudy.15 mph79%30.06 "Hg9 mi
12:00 AM16 °FLight snow. Passing clouds.14 mph79%30.04 "Hg9 mi
11:00 PM
Nov 20
16 °FLight snow. Partly cloudy.10 mph86%30.01 "Hg9 mi
10:00 PM16 °FLight snow. Overcast.10 mph86%30.00 "Hg5 mi
Weather by CustomWeather, © 2014

See weather overviewHow to use our weather pages